Location: Namasale
(1.5000°N, 32.6167°E)
Time: 17:15:10
(UTC+00:00)

Courier 1B - Pass Details

Date: 24 April 2021
Orbit: 962 x 1209 km, 28.3° (Epoch: 18 May)

Event Time Altitude Azimuth Distance (km) Brightness Sun altitude
Rises 02:23:31 0° 216° (SW) 4,110 - -20.1°
Exits shadow 02:26:47 - 203° (SSW) 3,256 9.9 -19.3°
Reaches altitude 10° 02:27:16 10° 200° (SSW) 3,141 9.8 -19.2°
Maximum altitude 02:32:49 21° 155° (SSE) 2,409 9.7 -17.9°
Drops below altitude 10° 02:38:16 10° 109° (ESE) 3,074 11.0 -16.6°
Sets 02:41:52 0° 93° (E) 3,997 12.2 -15.7°
